{"data":{"norad_id":49072,"intl_designator":"2021-074B","name":"TIANHUI 2-02B","alt_names":[],"object_type":"PAYLOAD","status":"ACTIVE","operator":null,"country":"PRC","launch_date":"2021-08-18","launch_site_code":"TAISC","launch_vehicle":null,"mission":null,"orbit_class":"UNKNOWN","rcs_meters":null,"size_class":null,"mass_kg":null,"dimensions":null,"purposes":[],"wikipedia_slug":null,"has_3d_model":false,"image_url":null,"decayed_at":null,"tle_current":{"epoch":"2026-09-20T14:12:31.273632Z","epoch_age_seconds":93031,"freshness":"FRESH","line1":"1 49072U 21074B   26263.59202863  .00001069  00000+0  57936-4 0  9999","line2":"2 49072  97.4862 265.5815 0002010  90.4512 269.6952 15.16737182281737","mean_motion":15.16737182,"eccentricity":0.000201,"inclination_deg":97.4862,"raan_deg":265.5815,"arg_perigee_deg":90.4512,"mean_anomaly_deg":269.6952,"bstar":5.7936e-5,"rev_number":28173,"period_min":94.940640810373,"perigee_km":514.32399529875,"apogee_km":517.09532165546,"semimajor_km":6893.8466584771,"source":"CELESTRAK","updated_at":"2026-09-21T09:00:07.946642Z"}}}